Regional Weather Roundup
Issued by NWS

Home | Current Version | Previous Version | Graphics & Text | Print | Product List | Glossary On
Versions: 1 2 3 4 5 6 7 8 9 10 11 12 13 14 15 16 17 18 19 20 21 22 23 24 25 26 27 28 29 30 31 32 33 34 35 36 37 38 39 40 41 42 43 44 45 46 47 48 49 50
000
ASUS43 KFSD 040402
RWRSD

WEATHER ROUNDUP FOR SOUTH DAKOTA
NATIONAL WEATHER SERVICE SIOUX FALLS SD
1100 PM CDT FRI JUL 03 2015

NOTE: "FAIR" INDICATES FEW OR NO CLOUDS BELOW 12,000 FEET WITH NO
SIGNIFICANT WEATHER AND/OR OBSTRUCTIONS TO VISIBILITY.


SDZ001>005-009-010-012>017-040500-
NORTHWEST AND NORTH CENTRAL SOUTH DAKOTA

CITY           SKY/WX    TMP DP  RH WIND       PRES   REMARKS
BUFFALO          N/A     69  58  67 SE10      29.87R
FAITH            N/A     68  61  78 SE10      29.94R
MOBRIDGE       CLEAR     71  67  87 E3        29.90R FOG
$$

SDZ012>016-024>037-041>051-057-063-072>074-040500-
SOUTHWEST AND SOUTH CENTRAL SOUTH DAKOTA

CITY           SKY/WX    TMP DP  RH WIND       PRES   REMARKS
RAPID CTY ARPT CLEAR     66  61  84 S3        29.97R
PIERRE         CLEAR     69  64  84 SE6       29.92R HAZE
CUSTER         CLEAR     60  54  80 CALM      30.12R
ELLSWORTH AFB  CLEAR     67  62  82 S8        29.96R
PHILIP         CLEAR     67  63  87 E5        29.94R FOG
PINE RIDGE     CLEAR     65  59  81 NE5       29.99R
WINNER         FAIR      71  62  73 SE9       29.95R
$$

SDZ004>011-016>023-039-040-040500-
NORTHEAST SOUTH DAKOTA

CITY           SKY/WX    TMP DP  RH WIND       PRES   REMARKS
ABERDEEN       CLOUDY    67  65  93 S5        29.92R FOG
WATERTOWN      MOCLDY    69  64  84 S3        29.95R HAZE
BROOKINGS      CLEAR     70  63  78 SW5       29.97R
SISSETON         N/A     67  64  90 S3        29.91R
$$

SDZ017-020-022-023-036>040-048>070-040500-
SOUTHEAST SOUTH DAKOTA

CITY           SKY/WX    TMP DP  RH WIND       PRES   REMARKS
SIOUX FALLS    MOCLDY    70  63  78 SW3       29.96R
HURON          CLEAR     72  66  81 S8        29.92R
MITCHELL       CLEAR     70  65  84 S6        29.94R
YANKTON        CLEAR     70  63  78 S3        29.95R
$$

ABBREVIATIONS USED IN REMARKS
   TC - TEMPERATURE IN CELSIUS
  WCI - WIND CHILL INDEX
   HX - HEAT INDEX
  VSB - VISIBILITY




USA.gov is the U.S. government's official web portal to all federal, state and local government web resources and services.